Wind_Gust
5 6 10 11 10 10 10 11 10 11 11 9 11 12 13 11 13 13 10 10 10 9 8 8 10 12 13 11 8 10 9 9 7 9 8 7 4 7 8 7 5 7
5 6 9 9 9 8 8 8 10 11 10 9 10 11 11 11 9 10 11 11 10 9 8 7 9 10 11 9 11 12 11 9 8 7 9 7 5 6 6 5 5 5
5 5 7 9 11 9 9 7 7 9 10 9 11 12 11 9 11 11 11 11 11 10 8 7 7 7 6 8 10 12 12 9 9 7 8 9 8 8 7 6 5 5
15 16 10 8 10 11 9 10 6 6 5 11 12 11 11 11 12 10 9 11 9 8 9 8 7 6 7 11 11 10 9 10 9 8 8 6 6 8 7 5 6 6
12 9 11 10 8 9 9 10 9 6 8 12 11 10 13 11 10 10 11 9 7 7 8 7 6 7 7 10 9 11 11 11 10 11 11 8 5 6 5 6 5 6
10 8 10 11 10 11 10 9 7 7 11 12 12 11 11 11 12 11 9 8 7 7 5 6 9 6 9 9 11 12 10 10 9 10 10 10 8 7 6 6 7 7
11 10 10 10 9 8 10 8 7 10 12 12 11 11 11 12 13 11 10 8 7 6 6 6 7 6 7 10 11 8 8 8 8 10 11 9 8 6 6 6 6 9
11 11 10 9 10 8 8 6 9 12 12 12 10 10 10 13 13 11 9 9 8 6 7 6 5 6 7 8 8 8 7 5 8 9 10 8 8 8 6 6 7 9
12 13 11 10 10 9 8 7 8 9 10 11 10 10 9 12 12 11 10 10 8 8 8 6 5 6 6 8 8 8 5 5 9 12 10 10 10 8 6 7 9 8
14 13 13 11 11 10 9 7 10 9 9 10 9 8 10 11 12 9 9 9 9 9 8 6 6 6 6 8 7 6 7 8 8 9 10 11 9 8 10 10 9 7
11 12 12 12 12 11 8 9 10 10 9 10 10 7 8 12 9 7 9 10 11 9 8 8 7 6 8 7 5 5 7 8 8 7 6 7 10 12 10 9 7 7
10 11 12 12 11 10 11 13 12 10 10 10 9 9 11 11 8 7 11 10 10 9 9 10 7 7 9 6 5 6 7 6 6 6 7 10 10 10 9 8 8 6
9 11 11 11 10 10 11 12 11 11 11 10 9 11 10 8 6 9 9 10 9 9 10 10 8 8 8 6 6 6 7 8 8 7 8 8 8 9 9 10 10 8
6 8 8 7 12 12 12 11 11 10 9 8 10 11 9 7 9 11 10 8 11 11 8 7 8 8 6 6 6 9 9 8 8 8 10 9 8 15 16 15 14 13
8 7 7 6 9 11 11 11 10 9 9 8 9 9 10 8 7 7 7 9 12 16 16 15 15 12 9 6 8 9 9 9 9 11 12 14 17 17 17 16 13 13
9 9 10 7 9 11 9 8 8 10 10 9 9 7 8 9 7 6 8 15 17 17 15 16 14 11 10 17 11 9 8 11 13 14 15 16 19 18 14 13 11 9
12 10 13 12 9 9 8 8 8 10 10 10 10 6 7 9 9 7 9 16 16 18 17 15 13 10 11 18 16 16 14 13 12 14 14 16 15 13 12 11 7 6
15 16 13 12 12 13 13 12 13 14 13 10 9 7 6 8 10 8 16 18 18 17 17 14 12 12 12 15 16 15 13 14 14 15 15 13 11 10 8 7 6 7
10 13 16 16 13 13 13 15 14 15 13 13 13 10 14 15 12 18 16 14 18 19 17 13 13 12 13 14 15 15 14 13 12 11 12 11 11 9 7 5 6 4
9 12 12 12 12 12 14 15 16 14 11 11 13 15 15 14 16 18 17 15 17 19 17 13 13 11 13 14 14 13 12 10 9 11 10 11 10 9 7 5 6 6
11 11 11 10 11 12 12 13 14 13 14 12 15 15 14 14 15 17 15 14 14 16 18 15 12 10 13 15 14 13 12 9 10 7 9 8 8 8 9 9 7 8
11 13 15 13 10 10 14 11 13 13 13 11 13 13 12 13 12 14 15 14 13 16 18 15 11 11 14 16 16 14 14 18 11 7 5 4 7 7 4 5 4 4
9 9 10 13 11 13 13 14 9 12 10 9 13 12 13 12 10 11 12 14 14 15 17 14 11 11 13 15 16 14 11 11 11 11 9 9 9 9 9 8 8 8
10 9 9 10 7 10 12 11 12 8 9 9 11 11 13 11 11 12 11 12 14 13 14 17 11 10 13 15 15 14 10 11 9 11 12 10 8 10 12 14 17 21
13 11 11 12 13 11 9 7 7 9 8 9 11 11 12 11 11 14 11 12 12 14 13 17 13 11 12 13 14 12 11 11 12 12 12 10 9 11 11 13 14 15
19 15 12 12 12 10 8 8 6 9 11 11 10 11 13 12 11 12 13 12 10 11 13 14 14 11 11 16 16 16 14 14 11 13 10 10 11 11 12 12 12 11
Wind_Speed
2 1 5 6 6 6 6 7 6 7 6 5 6 6 7 6 7 8 6 6 6 6 5 6 7 7 6 5 5 6 6 6 5 5 5 4 3 4 5 5 4 5
2 1 3 6 5 5 5 6 7 7 6 5 6 6 7 6 6 5 6 7 6 6 5 5 6 7 7 6 6 6 6 6 5 4 6 5 3 4 4 4 4 3
4 2 1 5 7 6 6 4 5 6 6 6 6 6 6 4 6 6 6 6 7 6 5 5 5 5 4 5 6 6 6 5 5 4 5 5 5 5 4 4 4 4
10 11 7 5 6 7 6 6 4 4 4 6 6 5 5 5 6 6 5 6 5 5 5 4 5 4 4 6 6 6 6 5 5 5 5 3 3 5 4 4 4 3
6 5 7 6 5 6 6 6 6 4 5 7 6 6 7 6 6 6 6 5 4 4 5 4 4 4 5 6 5 6 6 6 5 6 5 4 3 4 3 4 4 4
3 3 6 6 6 6 6 6 4 5 7 8 7 7 7 7 7 7 6 5 4 4 4 4 5 4 6 6 7 7 6 6 6 6 6 5 3 3 3 3 4 4
7 6 6 6 6 4 5 4 4 6 7 7 7 7 7 8 8 7 6 5 4 4 3 4 5 4 5 6 7 5 5 5 4 5 7 5 5 4 4 4 4 5
8 7 6 6 6 5 5 4 5 7 6 6 6 6 6 8 8 7 6 6 5 4 4 4 4 4 5 5 5 5 5 3 5 6 6 5 5 5 4 4 4 6
8 8 7 6 7 6 5 5 5 6 6 6 6 6 6 7 7 7 6 6 4 4 4 4 4 4 4 5 5 5 3 3 6 7 6 6 6 5 4 4 5 5
9 8 9 7 7 6 6 4 5 5 5 5 5 5 6 7 7 6 6 6 6 6 5 4 4 4 4 5 4 4 5 6 5 6 6 7 5 5 6 6 5 4
7 8 8 8 7 6 5 6 6 6 4 5 5 5 5 7 5 5 6 6 7 6 5 5 4 4 5 4 4 4 5 5 5 5 4 5 6 7 7 6 5 4
7 7 8 8 7 6 6 8 7 6 5 5 5 5 6 7 5 5 6 7 7 6 6 5 4 4 5 4 4 4 5 4 4 4 5 6 6 6 6 5 5 4
6 7 7 7 6 5 6 7 7 7 7 6 5 6 7 5 4 6 5 6 6 6 6 6 5 5 5 4 4 4 4 5 5 4 5 5 5 6 5 5 5 4
3 5 5 5 8 8 7 7 7 7 6 5 6 6 5 4 5 7 6 5 7 6 4 4 5 4 4 4 4 6 5 5 5 5 7 6 6 10 10 9 8 8
3 2 5 4 6 7 7 7 6 6 5 5 6 5 5 5 5 5 5 6 8 9 9 7 7 5 3 3 5 6 6 6 6 7 8 9 10 10 9 9 8 7
1 2 4 3 6 7 6 5 5 6 6 5 5 5 5 5 4 4 5 10 11 10 9 8 7 5 4 11 9 6 5 7 7 8 9 9 9 9 8 7 5 5
2 3 5 6 6 6 5 5 5 5 6 6 5 4 5 5 5 4 7 9 10 11 10 8 5 5 8 14 14 14 10 7 8 8 8 8 8 8 7 5 3 3
4 7 6 7 8 8 8 7 7 7 6 5 4 4 3 5 6 6 10 10 9 10 10 7 6 7 9 13 13 13 12 9 8 8 7 7 6 6 5 4 3 2
6 5 7 8 7 8 8 8 8 9 7 8 6 5 7 8 7 11 9 8 11 11 10 7 6 8 10 12 12 12 12 10 7 6 7 6 6 5 4 3 3 2
5 7 7 7 6 7 8 9 10 8 7 6 7 8 9 8 10 11 10 9 10 11 9 7 7 7 10 11 11 11 11 9 5 7 6 6 5 4 4 3 2 1
5 6 6 5 6 8 8 8 8 8 8 7 8 8 8 8 9 10 9 8 9 9 10 7 5 7 9 11 11 11 11 8 6 3 5 5 5 5 5 4 4 2
5 6 7 5 5 6 8 6 5 7 7 6 8 8 7 8 7 8 9 9 8 10 10 8 6 8 10 11 11 11 13 10 7 3 3 3 3 2 2 2 2 2
5 5 6 6 5 7 8 7 5 6 5 5 7 7 7 7 6 7 7 8 9 9 10 8 6 7 10 11 10 11 9 6 4 5 6 6 5 5 4 5 5 5
3 4 6 6 5 6 6 5 5 4 4 5 6 7 7 6 6 7 6 7 9 8 8 10 6 7 10 12 12 12 8 6 5 6 7 6 5 6 7 8 11 17
8 5 5 7 8 7 6 5 3 5 5 5 6 7 7 7 7 8 6 7 7 8 10 10 7 6 10 11 11 9 8 6 7 7 7 6 5 6 6 7 7 10
10 9 7 6 7 6 5 4 3 4 6 7 6 6 7 7 7 7 8 7 6 7 7 8 8 6 6 9 12 13 12 8 6 7 6 6 6 6 7 6 6 5
Wind_Direction
356 113 136 135 135 143 146 144 151 158 163 161 165 170 171 182 175 176 165 148 141 128 117 116 130 147 159 155 154 142 140 138 132 138 134 133 131 129 122 128 139 151
25 340 116 121 124 128 137 144 153 154 158 168 165 158 161 154 148 130 127 123 117 120 124 124 127 135 148 144 141 137 135 140 142 134 137 140 141 123 133 147 149 151
153 113 206 141 142 141 144 148 145 148 155 168 156 147 145 134 134 129 123 118 122 126 129 138 143 144 135 123 137 136 143 145 140 140 133 143 143 135 145 143 144 148
173 159 165 149 143 143 149 148 155 151 137 147 155 147 137 138 126 118 119 121 126 140 155 156 157 159 139 144 142 136 142 151 147 140 128 128 143 138 147 139 138 134
159 150 140 146 143 147 149 154 163 157 145 147 134 128 129 122 107 115 119 120 124 139 150 141 146 156 123 136 129 129 142 143 142 141 137 145 161 139 159 135 138 144
193 144 138 147 152 152 154 155 160 139 141 130 134 127 125 118 119 126 129 127 130 136 112 116 136 125 112 127 118 135 144 141 149 138 140 150 157 146 137 141 141 144
156 136 137 146 143 149 149 153 140 142 134 134 126 131 128 123 129 135 135 135 141 125 113 128 107 102 125 124 132 146 149 158 161 144 138 146 138 145 141 135 124 134
138 138 140 140 141 156 158 149 133 122 139 134 138 148 132 134 135 139 135 138 141 125 124 112 106 124 120 117 117 130 167 162 116 131 141 139 139 146 152 130 120 128
143 143 142 144 149 163 160 147 138 142 150 138 147 147 129 137 139 140 141 143 135 133 131 127 132 113 105 114 131 130 104 85 127 135 137 133 143 154 136 119 120 129
148 146 147 149 160 166 162 154 151 145 145 140 145 138 121 136 138 141 137 141 137 139 142 136 128 111 119 126 120 103 113 115 117 121 131 143 134 124 124 127 134 133
142 145 146 155 166 172 168 159 157 150 145 140 140 123 124 134 140 126 132 130 136 142 140 137 143 124 124 117 97 110 118 112 114 120 114 110 128 131 130 131 132 142
136 149 157 160 169 173 163 156 150 142 139 142 131 123 141 138 142 133 136 137 138 141 140 148 142 129 133 137 112 111 105 94 83 86 106 116 121 126 131 129 131 122
131 140 146 155 157 149 145 137 137 138 139 145 138 137 134 135 131 135 144 142 142 134 141 154 145 133 129 127 111 106 96 93 94 95 84 93 118 123 114 112 111 106
78 111 114 121 139 151 132 128 126 132 137 136 138 132 139 137 142 145 164 132 145 132 109 87 82 91 117 129 112 110 107 96 96 86 75 74 66 59 62 64 68 65
6 319 75 90 131 124 123 127 125 129 127 127 132 135 140 144 138 132 131 113 93 89 86 77 71 63 54 95 113 106 99 96 93 78 70 64 66 67 59 58 57 64
96 313 87 86 110 121 122 119 127 133 126 129 133 136 136 136 147 126 109 103 102 89 82 76 64 53 41 76 82 91 78 84 83 82 83 88 85 79 72 70 72 71
52 71 69 72 88 89 85 83 113 125 126 137 147 135 139 141 150 121 93 105 101 100 87 77 60 28 40 77 76 84 87 78 74 74 85 92 93 94 94 87 81 87
48 55 55 73 79 83 83 82 79 79 78 79 75 62 95 130 136 96 101 105 93 87 84 78 70 26 42 66 72 79 89 87 84 85 86 87 94 103 106 101 98 88
76 74 68 50 62 81 86 80 76 71 68 71 68 78 73 65 73 89 91 91 97 91 82 71 68 21 48 58 65 67 79 89 91 98 97 105 109 110 118 114 90 49
74 70 64 78 64 66 74 77 75 69 73 77 76 68 71 74 80 88 91 88 92 95 89 71 68 25 55 59 59 62 66 80 99 108 116 126 140 143 137 142 148 178
73 69 69 63 77 74 53 65 72 67 62 58 67 68 70 76 89 92 92 96 94 92 86 68 54 36 63 65 61 66 70 78 59 59 120 137 148 158 164 167 187 172
85 94 87 69 68 80 81 44 70 83 82 74 73 70 70 76 71 88 93 91 91 90 86 74 49 36 62 64 66 70 72 61 41 354 80 125 143 139 149 182 135 135
106 97 99 90 71 80 83 90 58 60 66 72 73 72 75 65 69 72 83 92 87 85 89 83 64 32 52 61 60 67 75 88 81 56 44 52 74 89 79 63 55 51
54 100 105 108 100 91 97 86 88 75 75 79 90 90 81 79 83 77 72 90 96 93 96 92 69 40 56 55 57 57 73 79 69 64 48 38 45 49 62 64 53 47
23 44 74 87 82 78 79 80 86 105 94 81 89 91 90 90 86 87 79 74 82 96 94 91 85 56 57 66 64 60 67 68 73 76 62 35 52 75 67 66 56 52
30 28 39 66 88 85 73 79 82 86 83 92 83 87 95 96 93 89 88 78 79 82 79 89 92 77 73 79 73 67 65 68 59 75 71 56 59 72 71 56 53 44